Change the Weather History Date:

Tuesday, January 31, 2012

  Actual Average Record
Temperature  
Mean Temperature 64 °F 53 °F  
Max Temperature 70 °F 64 °F 85 °F (1911)
Min Temperature 57 °F 42 °F 0 °F (1949)
Degree Days  
Heating Degree Days 1 12  
Month to date heating degree days 270 418  
Since 1 July heating degree days 804 1018  
Cooling Degree Days 0 0  
Month to date cooling degree days 5 7  
Year to date cooling degree days 5 7  
Growing Degree Days 13 (Base 50)    
Moisture  
Dew Point 60 °F    
Average Humidity 87    
Maximum Humidity 100    
Minimum Humidity 73    
Precipitation  
Precipitation 0.27 in 0.06 in 2.05 in (1998)
Month to date precipitation 3.99 1.76  
Year to date precipitation 3.99 1.76  
Snow  
Snow 0.00 in - - ()
Month to date snowfall 0.0  
Since 1 July snowfall 0.0  
Snow Depth 0.00 in    
Sea Level Pressure  
Sea Level Pressure 30.09 in    
Wind  
Wind Speed 5 mph (SSW)    
Max Wind Speed 16 mph    
Max Gust Speed 21 mph    
Visibility 6 miles    
Events Rain    
T = Trace of Precipitation, MM = Missing Value Source: NWS Daily Summary

Daily Weather History Graph

Daily Weather History Graph

Search for Another Location

Airport or City:

Trip Planner

Search our weather history database for the weather conditions in past years. The results will help you decide how hot, cold, wet, or windy it might be!

Date:

Astronomy

Jan. 31, 2012 Rise Set
Actual Time 7:24 AM CST 6:10 PM CST
Civil Twilight 6:59 AM CST 6:35 PM CST
Nautical Twilight 6:30 AM CST 7:04 PM CST
Astronomical Twilight 6:02 AM CST 7:32 PM CST
Moon 12:05 PM CST (1/31) 1:11 AM CST (1/31)
Length of Visible Light 11h 36m
Length of Day
10h 46m
First Quarter, 55% of the Moon is Illuminated
Jan 31
First Quarter
Feb 7
Full
Feb 14
Last Quarter
Feb 21
New
Feb 29
First Quarter

Hourly Weather History & Observations

Time (CST) Temp. Dew Point Humidity Pressure Visibility Wind Dir Wind Speed Gust Speed Precip Events Conditions
12:01 AM 60.8 °F 60.8 °F 100% 30.15 in 2.0 mi South 6.9 mph - 0.00 in Rain Light Rain
12:23 AM 60.8 °F 60.8 °F 100% 30.14 in 4.0 mi Variable 6.9 mph - 0.22 in Rain Light Rain
12:32 AM 60.8 °F 60.8 °F 100% 30.14 in 3.0 mi South 6.9 mph - 0.22 in Rain Light Rain
12:53 AM 61.0 °F 61.0 °F 100% 30.10 in 4.0 mi SW 8.1 mph 16.1 mph 0.27 in Rain Light Rain
1:53 AM 61.0 °F 61.0 °F 100% 30.09 in 4.0 mi South 6.9 mph - 0.00 in   Light Drizzle
2:38 AM 60.8 °F 60.8 °F 100% 30.12 in 4.0 mi South 5.8 mph - 0.00 in   Light Drizzle
2:53 AM 61.0 °F 61.0 °F 100% 30.09 in 4.0 mi South 5.8 mph - 0.00 in   Light Drizzle
3:26 AM 60.8 °F 60.8 °F 100% 30.12 in 1.5 mi SSW 4.6 mph - 0.00 in   Light Drizzle
3:47 AM 60.8 °F 60.8 °F 100% 30.12 in 2.0 mi SSW 5.8 mph - 0.00 in   Light Drizzle
3:53 AM 61.0 °F 61.0 °F 100% 30.08 in 2.0 mi South 4.6 mph - 0.00 in   Light Drizzle
4:53 AM 61.0 °F 61.0 °F 100% 30.08 in 2.0 mi South 4.6 mph - 0.00 in   Light Drizzle
4:55 AM 60.8 °F 60.8 °F 100% 30.11 in 1.0 mi South 4.6 mph - 0.00 in   Light Drizzle
5:53 AM 60.1 °F 60.1 °F 100% 30.06 in 1.0 mi SSW 5.8 mph - 0.00 in   Light Drizzle
6:53 AM 59.0 °F 59.0 °F 100% 30.08 in 1.0 mi SSW 6.9 mph - 0.00 in   Light Drizzle
7:34 AM 59.0 °F 59.0 °F 100% 30.13 in 0.8 mi WSW 3.5 mph - 0.00 in   Light Drizzle
7:53 AM 59.0 °F 59.0 °F 100% 30.09 in 1.0 mi Calm Calm - 0.00 in   Light Drizzle
8:23 AM 60.8 °F 60.8 °F 100% 30.13 in 0.5 mi Calm Calm - 0.00 in   Light Drizzle
8:42 AM 60.8 °F 60.8 °F 100% 30.13 in 1.5 mi WSW 6.9 mph - 0.00 in   Light Drizzle
8:53 AM 60.8 °F 60.8 °F 100% 30.14 in 1.5 mi WSW 4.6 mph - N/A   Overcast
9:20 AM 62.6 °F 60.8 °F 94% 30.15 in 6.0 mi WSW 6.9 mph - N/A   Overcast
9:53 AM 63.0 °F 61.0 °F 93% 30.12 in 8.0 mi WSW 8.1 mph - N/A   Overcast
10:34 AM 64.4 °F 60.8 °F 88% 30.15 in 10.0 mi WSW 8.1 mph - N/A   Overcast
10:53 AM 64.9 °F 61.0 °F 87% 30.11 in 10.0 mi SW 8.1 mph - N/A   Overcast
11:03 AM 66.2 °F 62.6 °F 88% 30.15 in 10.0 mi SW 9.2 mph - N/A   Mostly Cloudy
11:53 AM 66.9 °F 60.1 °F 79% 30.10 in 10.0 mi SW 12.7 mph - N/A   Overcast
12:53 PM 66.9 °F 61.0 °F 81% 30.07 in 10.0 mi SSW 11.5 mph - N/A   Overcast
1:53 PM 68.0 °F 61.0 °F 78% 30.04 in 10.0 mi SW 10.4 mph - N/A   Overcast
2:53 PM 69.1 °F 61.0 °F 75% 30.01 in 10.0 mi South 9.2 mph - N/A   Overcast
3:53 PM 69.1 °F 60.1 °F 73% 30.01 in 10.0 mi South 8.1 mph - N/A   Overcast
4:53 PM 69.1 °F 60.1 °F 73% 30.01 in 10.0 mi SSW 6.9 mph - N/A   Overcast
5:53 PM 69.1 °F 60.1 °F 73% 30.01 in 10.0 mi SSW 6.9 mph - N/A   Mostly Cloudy
6:53 PM 68.0 °F 60.1 °F 76% 30.03 in 10.0 mi SW 3.5 mph - N/A   Overcast
7:34 PM 66.2 °F 60.8 °F 83% 30.08 in 10.0 mi Calm Calm - N/A   Partly Cloudy
7:53 PM 66.9 °F 60.1 °F 79% 30.04 in 10.0 mi Calm Calm - N/A   Partly Cloudy
8:53 PM 61.0 °F 60.1 °F 97% 30.06 in 10.0 mi Calm Calm - N/A   Partly Cloudy
9:53 PM 59.0 °F 57.9 °F 96% 30.06 in 8.0 mi Calm Calm - N/A   Scattered Clouds
10:53 PM 57.9 °F 57.0 °F 97% 30.06 in 10.0 mi Calm Calm - N/A   Mostly Cloudy
11:49 PM 60.8 °F 59.0 °F 94% 30.09 in 8.0 mi WNW 3.5 mph - N/A   Overcast
11:53 PM 60.1 °F 57.9 °F 93% 30.06 in 8.0 mi Calm Calm - N/A   Overcast